CRVULIBAV Weather Reports


Display with metric or nautical units.
time (UTC)temp
F
wind
direction
speed
MPH
gust
MPH
rain 1hr
in
rain 24hr
in
rain mn
in
humidity
%
barometer
mb
20260507092140 57 260 9.0 0.0 0.00 0.00 0.00 71
20260507082139 55 240 9.0 0.0 0.00 0.00 0.00 76
20260507072140 54 240 9.0 0.0 0.00 0.00 0.00 81
20260507062139 50 240 9.0 0.0 0.00 0.00 0.00 93
20260507052139 50 230 7.0 0.0 0.00 0.00 0.00 93
20260507042341 50 220 12.0 0.0 0.00 0.00 0.00 93
20260507032139 50 220 12.0 0.0 0.00 0.00 0.00 87
20260507022137 52 190 14.0 0.0 0.00 0.00 0.00 81
20260507012238 54 190 16.0 0.0 0.00 0.00 0.00 76
20260507002139 55 180 18.0 0.0 0.00 0.00 0.00 71
20260506232140 55 170 18.0 0.0 0.00 0.00 0.00 71
20260506222411 57 170 20.0 31.0 0.00 0.00 0.00 67
20260506212154 57 180 18.0 0.0 0.00 0.00 0.00 67
20260506202211 59 170 18.0 0.0 0.00 0.00 0.00 62
20260506192347 61 170 18.0 0.0 0.00 0.00 0.00 55
20260506182244 61 170 18.0 33.0 0.00 0.00 0.00 55
20260506172209 63 160 18.0 0.0 0.00 0.00 0.00 55
20260506162410 63 170 18.0 29.0 0.00 0.00 0.00 51
20260506152227 63 170 14.0 0.0 0.00 0.00 0.00 55
20260506142155 64 180 16.0 0.0 0.00 0.00 0.00 52
20260506132155 64 180 14.0 0.0 0.00 0.00 0.00 52
20260506122154 66 200 16.0 0.0 0.00 0.00 0.00 42
20260506112141 64 200 14.0 24.0 0.00 0.00 0.00 48
20260506102342 61 200 14.0 0.0 0.00 0.00 0.00 59